Pocatello, ID

10:58 PM MDT on May 25, 2017 (GMT -0600)
Pocatello Regional

Weather History for KPIH - August, 2014

Change the Weather History Date:

Saturday, August 9, 2014

  Actual Average Record
Temperature  
Mean Temperature 70 °F 70 °F  
Max Temperature 88 °F 89 °F 99 °F (2003)
Min Temperature 51 °F 52 °F 35 °F (1995)
Degree Days  
Heating Degree Days 0 0  
Month to date heating degree days 1 0  
Since 1 June heating degree days 113 151  
Since 1 July heating degree days 3 20  
Cooling Degree Days 5 6  
Month to date cooling degree days 42 54  
Year to date cooling degree days 309 277  
Since 1 June cooling degree days 309 272  
Growing Degree Days 20 (Base 50)    
Moisture  
Dew Point 52 °F    
Average Humidity 61    
Maximum Humidity 100    
Minimum Humidity 21    
Precipitation  
Precipitation 0.00 in 0.02 in 0.29 in (1968)
Month to date precipitation 1.03 0.17  
Year to date precipitation 7.63 7.63  
Snow  
Snow 0.00 in - - ()
Month to date snowfall 0.0  
Since 1 June snowfall 0.0  
Since 1 July snowfall 0.0  
Snow Depth 0.00 in    
Sea Level Pressure  
Sea Level Pressure 30.07 in    
Wind  
Wind Speed 5 mph (ENE)    
Max Wind Speed 14 mph    
Max Gust Speed 18 mph    
Visibility 10 miles    
Events      
T = Trace of Precipitation, MM = Missing Value Source: NWS Daily Summary

Daily Weather History Graph

Daily Weather History Graph

Search for Another Location

Airport or City:

Trip Planner

Search our weather history database for the weather conditions in past years. The results will help you decide how hot, cold, wet, or windy it might be!

Date:

Astronomy

Aug. 09, 2014 Rise Set
Actual Time 6:30 AM MDT 8:40 PM MDT
Civil Twilight 5:58 AM MDT 9:12 PM MDT
Nautical Twilight 5:20 AM MDT 9:50 PM MDT
Astronomical Twilight 4:37 AM MDT 10:32 PM MDT
Moon 7:44 PM MDT (8/9) 5:15 AM MDT (8/9)
Length of Visible Light 15h 13m
Length of Day
14h 10m
Waxing Gibbous, 98% of the Moon is Illuminated
Aug 9
Waxing Gibbous
Aug 10
Full
Aug 17
Last Quarter
Aug 25
New
Sep 2
First Quarter

Hourly Weather History & Observations

Time (MDT) Temp. Heat Index Dew Point Humidity Pressure Visibility Wind Dir Wind Speed Gust Speed Precip Events Conditions
12:53 AM 57.0 °F - 55.9 °F 96% 30.01 in 10.0 mi ENE 5.8 mph - N/A   Clear
1:53 AM 55.9 °F - 54.0 °F 93% 30.01 in 10.0 mi East 3.5 mph - N/A   Clear
2:53 AM 57.0 °F - 55.0 °F 93% 30.00 in 10.0 mi ESE 3.5 mph - N/A   Clear
3:53 AM 55.9 °F - 54.0 °F 93% 29.99 in 10.0 mi ENE 4.6 mph - N/A   Clear
4:53 AM 52.0 °F - 52.0 °F 100% 30.02 in 9.0 mi North 4.6 mph - N/A   Clear
5:53 AM 51.1 °F - 50.0 °F 96% 30.04 in 10.0 mi NE 6.9 mph - N/A   Clear
6:53 AM 52.0 °F - 52.0 °F 100% 30.06 in 10.0 mi WSW 4.6 mph - N/A   Clear
7:53 AM 55.0 °F - 53.1 °F 93% 30.12 in 10.0 mi WSW 4.6 mph - N/A   Scattered Clouds
8:53 AM 60.1 °F - 55.9 °F 86% 30.11 in 10.0 mi Calm Calm - N/A   Clear
9:53 AM 66.0 °F - 55.9 °F 70% 30.10 in 10.0 mi Variable 3.5 mph - N/A   Partly Cloudy
10:53 AM 71.6 °F - 57.2 °F 60% 30.22 in 10.0 mi Calm Calm - N/A   Partly Cloudy
11:53 AM 77.0 °F - 55.9 °F 48% 30.10 in 10.0 mi North - - N/A   Partly Cloudy
12:53 PM 81.0 °F 80.5 °F 54.0 °F 39% 30.08 in 10.0 mi North - - N/A   Partly Cloudy
1:53 PM 82.0 °F - 48.9 °F 31% 30.06 in 10.0 mi North - - N/A   Partly Cloudy
2:53 PM 86.0 °F - 45.0 °F 24% 30.04 in 10.0 mi ENE 8.1 mph - N/A   Partly Cloudy
3:53 PM 86.0 °F - 46.0 °F 25% 30.03 in 10.0 mi North 6.9 mph - N/A   Partly Cloudy
4:53 PM 87.1 °F - 42.1 °F 21% 30.03 in 10.0 mi Variable 5.8 mph - N/A   Partly Cloudy
5:53 PM 82.9 °F - 44.1 °F 25% 30.05 in 10.0 mi WSW 4.6 mph - N/A   Partly Cloudy
6:53 PM 82.0 °F - 46.0 °F 28% 30.05 in 10.0 mi SSW 9.2 mph - N/A   Partly Cloudy
7:53 PM 75.0 °F - 52.0 °F 44% 30.07 in 10.0 mi West 10.4 mph - N/A   Partly Cloudy
8:53 PM 71.6 °F - 51.8 °F 50% 30.19 in 10.0 mi SSW 6.9 mph - N/A   Partly Cloudy
9:53 PM 68.0 °F - 54.0 °F 61% 30.09 in 10.0 mi South 6.9 mph - N/A   Clear
10:53 PM 63.0 °F - 55.0 °F 75% 30.09 in 10.0 mi NNE 3.5 mph - N/A   Clear
11:53 PM 64.0 °F - 55.0 °F 73% 30.08 in 10.0 mi East 4.6 mph - N/A   Clear